Showing default

INTELSAT 37E, 42950

Orbit data source: Space-Track

INTELSAT 37E, 42950 is a payload satellite owned by Intelsat SA (US) (US) in GEO that was launched on Fri, 29 Sep 2017 UTC via an ARIANE 5ECA launch vehicle from the French Guiana (FRGUI). Payload-class satellites include a variety of spacecraft equipped with specific instruments for various scientific and technological missions. These include communications satellites like Starlink; space stations such as the ISS; scientific satellites like the Hubble; Earth observation satellites from companies like Planet Labs, Umbra, and HawkEye 360; GPS; miniature CubeSats for education and research; and military/defense satellites.

Not visible in the next 10 days
Identifier
42950, 2017-059A
Orbit
GEO
Country
Flag of USUS / ITSO
Related business
Manufacturer
Boeing/ES
Mission
Operational Commercial Communications
Bus & Motor
BSS-702MP, BT-4
Mass
6,538 kg wet, ~2,950 kg dry
Launch date (UTC)
2017-09-29 (9 years ago)
Launch vehicle
ARIANE 5ECA
Launch site
French Guiana (FRGUI)
Object type
Payload
Rocket body
Debris
Shape & HBR
Box + 2 Pan, 22.0 m
Radar Cross Section
65.369 m², Large (>1 m²)

Expand to show TLE details & history
Last TLE update: 9 hours ago

TLE from 9 hours ago
0 INTELSAT 37E
1 42950U 17059A   26167.11095703 -.00000141  00000-0  00000-0 0  9997
2 42950   0.0185  24.5523 0002356  81.8712 179.9212  1.00271763 32058
Epoch: 2026-06-16T02:39Z
TLE epoch observation values (Epoch: 2026-06-16T02:39:46.687Z)
Latitude
-0.04109°
Longitude
-17.98272°
Altitude
35,796.069 km
Speed
3.074 km/s
True Right ascension
19h 05m 23s
True Declination
0° 02' 28"
Sunlit
Object was in daylight at epoch
Visualization orbit readout
Latitude
Unknown
Longitude
Unknown
Altitude
Unknown
Speed
Unknown
Apparent Right ascension
Unknown
Apparent Declination
Unknown
Sunlit
N/A
Visualization observer readout
Local Sidereal Time
22:34:00
Azimuth
Unknown
Elevation
Unknown
Doppler factor
Unknown
Orbital elements
Apogee altitude
35,797.606 km
Perigee altitude
35,777.737 km
Semi-major axis
42,165.809 km
Eccentricity
0.00024
Inclination
0.0185°
RAAN
24.5523°
Arg. of periapsis
81.8712°
True anomaly
179.92124°
Mean anomaly
179.9212°
Eccentric anomaly
179.92122°
Mean motion
0.25067 °/min
Orbital period
1,436.15 mins
BSTAR
0
Loading maneuver chart data...
Computing Atmospheric mass density...
Loading historical data...
Loading historical data...
Loading historical data...
Loading historical data...
Loading historical data...
Loading historical data...
Loading historical data...
Other satellites on launch #59 in the year 2017 (2017-09-29 UTC)

Documentation

Showing up to 5 results
|